Regional Weather Roundup
Issued by NWS Grand Forks, ND

Home | Current Version | Previous Version | Text Only | Print | Product List | Glossary On
Versions: 1 2 3 4 5 6 7 8 9 10 11 12 13 14 15 16 17 18 19 20 21 22 23 24 25 26 27 28 29 30 31 32 33 34 35 36 37 38 39 40 41 42 43 44 45 46 47 48 49 50
000
ASUS43 KFGF 280910
RWRFGF
PRAIRIE TO PINES  WEATHER ROUNDUP
NATIONAL WEATHER SERVICE EASTERN NORTH DAKOTA/GRAND FORKS ND
400 AM CDT THU AUG 28 2014

 **SATELLITE DATA USED TO AUGMENT SKY COVER AT AUTOMATED STATIONS**
 *****  WEATHER ACROSS EASTERN NORTH DAKOTA  *****

CITY           SKY/WX    TMP DP  RH WIND       PRES   REMARKS
GRAND FORKS    CLOUDY    61  58  90 S8        30.00F
GRAND FRKS AFB CLOUDY    61  61  99 S5        30.00F
GRAND FRKS NWS   N/A     61 N/A N/A SE9         N/A
DEVILS LAKE    CLEAR     63  55  77 S10       29.97S
FARGO          MOCLDY    65  59  81 SE12      30.01F
WAHPETON ARPT  MOSUNNY   61  57  88 SE6       30.03F
$$

 ***** WEATHER ACROSS CENTRAL AND WESTERN NORTH DAKOTA  *****

CITY           SKY/WX    TMP DP  RH WIND       PRES   REMARKS
BISMARCK       PTCLDY    61  59  93 SE6       29.97F
MINOT          PTCLDY    63  60  90 S9        29.91F
JAMESTOWN      CLOUDY    65  61  87 S7        29.98F
MINOT AFB      PTCLDY    61  61 100 S7        29.91F
GARRISON         N/A     63  63 100 S6        29.96S
WILLISTON      CLEAR     64  58  80 S6        29.90F
DICKINSON      PTCLDY    57  56  96 S7        29.96S
HETTINGER      FOG       56  54  93 CALM      30.00F VSB 1/4
$$

 *****  OTHER AIRPORT OBSERVATIONS IN OUR AREA  *****

CITY           SKY/WX    TMP DP  RH WIND       PRES   REMARKS
WALHALLA         N/A     61  61 100 S9        29.97F
GRAFTON AIRPOR FAIR      54  54 100 SE6       30.00F
VALLEY CITY AR CLOUDY    64  64 100 S9        30.00F
CANDO          FAIR      57  57 100 S6        29.98S
CAVALIER APRT  FAIR      57  57 100 S7        29.99S
GWINNER        CLOUDY    64  64 100 SE3       30.02F
ROLLA          FAIR      55  55 100 S9        29.97F
 ***** THE ABOVE OBSERVATIONS ARE NON NWS ARE NOT QUALITY
       CONTROLLED AND MAY MIS-REPORT RAIN FOR SNOW...
$$

  *****  WEATHER ACROSS NORTHERN MINNESOTA  *****

CITY           SKY/WX    TMP DP  RH WIND       PRES   REMARKS
FLAG ISLAND    CLEAR     64  57  77 S7        30.03F
WARROAD        CLEAR     54  50  87 CALM      30.05F
ROSEAU         CLEAR     54  48  82 S6        30.05S
HALLOCK        CLEAR     55  54  94 SE8       30.00F
THF RVR FALLS  CLOUDY    57  55  94 SE7       30.04S
BAUDETTE       CLEAR     50  48  93 SE3       30.06F
WASKISH        CLEAR     52  52 100 CALM      30.07F
CROOKSTON      PTCLDY    61  57  88 S8        30.03S
$$
  *****  WEATHER ACROSS CENTRAL AND WEST MINNESOTA  *****

CITY           SKY/WX    TMP DP  RH WIND       PRES   REMARKS
FOSSTON        PTCLDY    57  54  88 SE6       30.06S
BEMIDJI        CLOUDY    53  53  99 CALM      30.08F
PARK RAPIDS    CLEAR     58  55  90 SE8       30.08F
ELBOW LAKE     CLOUDY    63  59  89 SE8       30.04F
WADENA         MOCLDY    59  55  88 SE6       30.07F
DETROIT LAKES  PTCLDY    61  57  88 SE8       30.06F
MOORHEAD       CLOUDY    64  64 100 S7        30.03S
FERGUS FALLS   CLOUDY    64  57  77 SE9       30.04F
MORRIS MN      CLEAR     61  59  94 SE5       30.04F
STAPLES        MOCLDY    57  55  94 SE3       30.09S
$$
  *****  WEATHER ELSEWHERE ACROSS MINNESOTA  *****

CITY           SKY/WX    TMP DP  RH WIND       PRES   REMARKS
DULUTH         PTCLDY    55  51  86 CALM      30.13S
INTRNTL FALLS  CLEAR     47  46  97 SE3       30.09F
ELY            CLEAR     45  43  93 CALM      30.13S
CLOQUET        FOG       50  48  93 CALM      30.13S VSB 3/4
WHEATON        CLEAR     57  55  94 SE5       30.04F
BRAINERD       CLOUDY    60  56  86 S3        30.10F
HIBBING        FOG       45  43  93 CALM      30.13R VSB 1/4
ALEXANDRIA     CLOUDY    62  57  83 SE9       30.08F
SAINT CLOUD    PTCLDY    62  55  77 SE6       30.09F
MINNEAPOLIS    PTCLDY    63  56  78 E8        30.10F
$$

  *****  WEATHER ACROSS SOUTH DAKOTA  *****

CITY           SKY/WX    TMP DP  RH WIND       PRES   REMARKS
SIOUX FALLS    LGT RAIN  67  65  93 E8        30.00F
BROOKINGS      NOT AVBL
WATERTOWN      CLOUDY    66  62  87 SE12G18   30.02F
HURON          LGT RAIN  68  66  93 SE5       29.97F
SISSETON         N/A     61  61 100 SW6       30.01F
ABERDEEN       CLOUDY    63  63 100 E5        29.99F
MITCHELL       LGT RAIN  68  67  96 SE8       29.98F
PIERRE         LGT RAIN  66  66 100 SE7       29.95F
MOBRIDGE       CLOUDY    67  66  97 SE5       29.94F
RAPID CITY     CLOUDY    63  60  90 N7        30.01F
$$

  *****  SOME WEATHER IN NEARBY STATES *****

CITY           SKY/WX    TMP DP  RH WIND       PRES   REMARKS
GLASGOW MT     CLEAR     59  54  83 E9        29.88F
GREAT FALLS MT CLEAR     61  47  59 S9        29.99S
CHEYENNE WY    MOCLDY    51  45  79 W7        30.17S
SCOTTSBLUFF NE PTCLDY    60  59  96 NW3       30.04F
OMAHA NE       TSTM      71  68  90 E7        29.99F
DES MOINES IA  CLOUDY    70  65  84 E5        30.03S
DAVENPORT IA   MOCLDY    66  63  90 E8        30.10R
CHICAGO IL     MOCLDY    68  56  65 E7        30.12F
EAU CLAIRE WI  CLEAR     55  53  93 NE5       30.13F
LA CROSSE WI   CLEAR     60  58  92 CALM      30.11F
$$

  *****  SOME NATIONAL WEATHER *****

CITY           SKY/WX    TMP DP  RH WIND       PRES   REMARKS
LA GUARDIA NY  PTCLDY    74  59  59 N15       29.85R
RALEIGH NC     PTCLDY    66  62  87 CALM      29.97S
ATLANTA GA     PTCLDY    69  64  84 NW5       30.03S
NEW ORLEANS LA MOCLDY    81  74  79 E3        29.96F
OKLAHOMA CITY  PTCLDY    72  65  78 SE7       29.98F
ALBUQUERQUE NM CLEAR     66  45  46 N8        30.22F
SALT LAKE CITY PTCLDY    61  49  64 SE8       30.20S
LOS ANGELES CA CLEAR     71  56  58 CALM      30.00F
BOISE ID       CLEAR     71  41  33 SE10      30.03S
SEATTLE WA     PTCLDY    63  55  75 SW5       30.06S
$$

*** WEATHER ACROSS MANITOBA...SASKATCHEWAN AND ONTARIO ***
                ***ONTARIO***

CITY           SKY/WX    TMP DP  RH WIND       PRES   REMARKS
GERALDTON      CLEAR     39  37  93 CALM      30.14S
THUNDER BAY    CLEAR     43  43 100 W3        30.15S
SIOUX LOOKOUT  CLEAR     52  48  87 S3        30.09S
TORONTO        PTCLDY    54  48  82 NW8       30.06S
BIG TROUT LK   MOCLDY    61  54  77 SW10      29.88F
PICKLE LAKE    NOT AVBL
DRYDEN         CLEAR     55  48  76 S10       30.08F
KENORA         CLEAR     54  52  94 S6        30.05F
$$
                *** MANITOBA***

CITY           SKY/WX    TMP DP  RH WIND       PRES   REMARKS
BRANDON        CLEAR     52  50  93 E5        29.91F
DAUPHIN        PTCLDY    68  57  68 SW17G23   29.82F
ISLAND LAKE    PTCLDY    64  54  68 S8        29.82F
PILOT MOUND      N/A     55  55 100 S10         N/A
THE PAS        PTCLDY    59  57  94 S3        29.75F
THOMPSON       PTCLDY    57  57 100 SW5       29.69S
WINNIPEG       CLEAR     59  55  88 S13       29.97F
LYNN LAKE      CLEAR     52  52 100 MISG      29.71S
CHURCHILL      PTCLDY    57  55  94 SW7       29.52R FOG
GILLAM         MOCLDY    59  59 100 S8        29.63
$$
                ***SASKATCHEWAN***

CITY           SKY/WX    TMP DP  RH WIND       PRES   REMARKS
ESTEVAN        PTCLDY    63  57  82 SW13      29.87F
KINDERSLEY     PTCLDY    59  54  82 NE9       29.87R
LLOYDMINSTER   CLOUDY    57  54  88 SW7       29.87R
PRINCE ALBERT  NOT AVBL
REGINA         CLEAR     55  54  94 CALM      29.83R
YORKTON        CLEAR     57  54  88 S9        29.79F
N. BATTLEFORD  LGT RAIN  59  55  88 N9        29.88F
LA RONGE       MOCLDY    52  52 100 W3        29.77R
SASKATOON      CLEAR     50  50 100 N6        29.85R
SWIFT CURRENT  CLEAR     57  50  77 SE7       29.85F
$$
NOTE: THESE ARE AUTOMATED STATIONS WITH LIMITED QUALITY CONTROL
      "FAIR" INDICATES FEW OR NO CLOUDS BELOW 12,000 FEET WITH NO
      SIGNIFICANT WEATHER AND/OR OBSTRUCTIONS TO VISIBILITY.
      SKY/WX - SKY CONDITION AND SIGNIFICANT WEATHER.
      TMP - AIR TEMPERATURE.    DP   - DEWPOINT TEMPERATURE.
      RH  - RELATIVE HUMIDITY.  PRES - PRESSURE.
      HX  - HEAT INDEX.         WCI  - WIND CHILL INDEX.
$



USA.gov is the U.S. government's official web portal to all federal, state and local government web resources and services.